Location: Taipo
(41.0000°S, 175.9500°E)
Time: 10:45:37
(UTC+00:00)

Cosmos 1733 Rocket - Pass Details

Date: 18 April 2024
Orbit: 599 x 625 km, 82.5° (Epoch: 25 May)

Event Time Altitude Azimuth Distance (km) Brightness Sun altitude
Rises 17:53:06 0° 7° (N) 2,841 6.6 -11.5°
Reaches altitude 10° 17:55:20 10° 12° (NNE) 1,948 5.8 -11.1°
Maximum altitude 17:59:29 49° 87° (E) 789 4.1 -10.3°
Drops below altitude 10° 18:03:44 10° 161° (SSE) 1,986 5.8 -9.5°
Sets 18:06:01 0° 166° (SSE) 2,902 6.6 -9.1°
